Regional Weather Roundup
Issued by NWS San Angelo, TX

Home | Current Version | Previous Version | Text Only | Print | Product List | Glossary On
Versions: 1 2 3 4 5 6 7 8 9 10 11 12 13 14 15 16 17 18 19 20 21 22 23 24 25 26 27 28 29 30 31 32 33 34 35 36 37 38 39 40 41 42 43 44 45 46 47 48 49 50
000
ASUS44 KSJT 241558
RWRSJT
WEST CENTRAL TEXAS REGIONAL WEATHER ROUNDUP
NATIONAL WEATHER SERVICE SAN ANGELO TX
1100 AM CDT WED MAY 24 2017

NOTE: "FAIR" INDICATES FEW OR NO CLOUDS BELOW 12,000 FEET WITH NO
SIGNIFICANT WEATHER AND/OR OBSTRUCTIONS TO VISIBILITY.

TXZ049-054-064>066-071>073-076>078-098-099-113-114-127-128-139-140-
154-155-168>170-241700
...LOCATIONS ACROSS WEST CENTRAL TEXAS...

CITY           SKY/WX    TMP DP  RH WIND       PRES   REMARKS
SAN ANGELO     FAIR      75  44  33 W9        29.95F
ABILENE        FAIR      64  46  52 W8        29.93F
DYESS AFB      NOT AVBL
JUNCTION       FAIR      73  45  36 W8        29.96F
SWEETWATER     NOT AVBL
BROWNWOOD      NOT AVBL
COLEMAN        NOT AVBL
SONORA         NOT AVBL
OZONA          NOT AVBL
BRADY          NOT AVBL
$$

TEXAS PANHANDLE/OKLAHOMA PANHANDLE

CITY           SKY/WX    TMP DP  RH WIND       PRES   REMARKS
AMARILLO       FAIR      70  36  28 SW21G26   29.91F
BORGER         FAIR      67  42  40 W8        29.89F
CANADIAN       NOT AVBL
DALHART        FAIR      69  40  34 SW22G30   29.88F
DUMAS          NOT AVBL
GUYMON         NOT AVBL
HEREFORD       NOT AVBL
PAMPA          NOT AVBL
PERRYTON       NOT AVBL
$$

SOUTHERN PANHANDLE/SOUTH PLAINS/ROLLING PLAINS

CITY           SKY/WX    TMP DP  RH WIND       PRES   REMARKS
LUBBOCK        FAIR      73  35  25 W17G25    29.94F
SNYDER         NOT AVBL
CHILDRESS      FAIR      67  39  35 CALM      29.89F
SEMINOLE       NOT AVBL
$$

PERMIAN BASIN

CITY           SKY/WX    TMP DP  RH WIND       PRES   REMARKS
MIDLAND        FAIR      72  39  30 SW13      29.98F
ODESSA         FAIR      71  38  29 SW12      29.99F
WINK           FAIR      73  35  25 SW12      29.97F
$$

FAR WEST/SOUTHWEST MOUNTAINS/TRANS PECOS

CITY           SKY/WX    TMP DP  RH WIND       PRES   REMARKS
ALPINE         NOT AVBL
DRYDEN         NOT AVBL
EL PASO        FAIR      69  40  34 S6        30.01F
FORT STOCKTON  FAIR      72  33  24 S7        29.99F
GUADALUPE PASS NOT AVBL
MARFA          NOT AVBL
PECOS          NOT AVBL
$$

DALLAS/FORT WORTH METROPLEX

CITY           SKY/WX    TMP DP  RH WIND       PRES   REMARKS
DFW AIRPORT    FAIR      72  44  36 NW15G22   29.85F
FTW MEACHAM    FAIR      70  46  42 NW12      29.87S
DAL-EXECUTIVE  FAIR      70  47  43 W15       29.85F
GRAND PRAIRIE  SUNNY     70  43  37 NW5       29.88F
ADDISON        SUNNY     68  43  40 MISG      29.87R
MESQUITE       SUNNY     70  43  37 NW10      29.86S
LANCASTER      NOT AVBL
$$

NORTH CENTRAL TEXAS

CITY           SKY/WX    TMP DP  RH WIND       PRES   REMARKS
SHRMAN/DENISON NOT AVBL
GAINESVILLE    NOT AVBL
BRIDGEPORT     NOT AVBL
DENTON         FAIR      69  45  41 NW10      29.86F
WAXAHACHIE     NOT AVBL
GRANBURY       NOT AVBL
$$

WESTERN NORTH TEXAS

CITY           SKY/WX    TMP DP  RH WIND       PRES   REMARKS
WICHITA FALLS  FAIR      68  43  40 VRB7      29.87F
VERNON         NOT AVBL
BRECKENRIDGE   NOT AVBL
COMANCHE       NOT AVBL
$$

CENTRAL AND SOUTH CENTRAL TEXAS

CITY           SKY/WX    TMP DP  RH WIND       PRES   REMARKS
AUSTIN/BERGSTM FAIR      76  50  40 W9        29.90F
WACO           FAIR      73  50  44 N10       29.87F
HILLSBORO      NOT AVBL
TEMPLE         FAIR      75  52  44 NW13      29.89S
KILLEEN-GRAY   NOT AVBL
FORT HOOD      NOT AVBL
GEORGETOWN     SUNNY     73  48  40 NW10      29.90F
LAGO VISTA     NOT AVBL
SAN MARCOS     SUNNY     79  50  36 W13       29.93F
NEW BRAUNFELS  FAIR      79  47  32 NW13      29.91F
RANDOLPH AFB   NOT AVBL
SAN ANTONIO    FAIR      77  44  30 W10       29.94F
STINSON        FAIR      77  46  33 W7        29.92F
PLEASANTON     NOT AVBL
LA GRANGE      NOT AVBL
GIDDINGS       NOT AVBL
$$

EAST TEXAS

CITY           SKY/WX    TMP DP  RH WIND       PRES   REMARKS
PARIS          NOT AVBL
CLARKSVILLE    NOT AVBL
TYLER          FAIR      69  49  48 NW16G22   29.82F
LONGVIEW       FAIR      68  52  56 W15G22    29.80S
PALESTINE      NOT AVBL
NACOGDOCHES    NOT AVBL
$$

TEXAS HILL COUNTRY AND EDWARDS PLATEAU

CITY           SKY/WX    TMP DP  RH WIND       PRES   REMARKS
LLANO          NOT AVBL
HORSESHOE BAY  NOT AVBL
KERRVILLE      NOT AVBL
FREDERICKSBRG  NOT AVBL
ROCKSPRINGS    NOT AVBL
HONDO          FAIR      75  49  39 W8        29.96F
UVALDE         NOT AVBL
DEL RIO        FAIR      72  54  53 CALM      29.96F
$$

SOUTHEAST TEXAS

CITY           SKY/WX    TMP DP  RH WIND       PRES   REMARKS
COLLEGE STN    FAIR      72  55  55 W10       29.88S
CALDWELL       NOT AVBL
CROCKETT       NOT AVBL
BRENHAM        NOT AVBL
HUNTSVILLE     FAIR      72  51  47 NW12      29.86S
CONROE         FAIR      72  53  51 W15       29.86S
HOUSTON BUSH   FAIR      75  53  46 W8        29.86S
HOUSTON HOBBY  FAIR      74  51  44 W13       29.86S
PERLAND        FAIR      74  53  48 W12       29.88R
WHARTON        NOT AVBL
$$

THE UPPER TEXAS COAST

CITY           SKY/WX    TMP DP  RH WIND       PRES   REMARKS
ORANGE         NOT AVBL
PORT ARTHUR    FAIR      74  54  49 NW14      29.81S
GALVESTON      FAIR      75  57  53 W14       29.87S
ANGLETON       FAIR      73  57  57 NW10      29.88S
BAY CITY       NOT AVBL
$$

TEXAS COASTAL BEND, RIO GRANDE PLAINS DEEP SOUTH TEXAS

CITY           SKY/WX    TMP DP  RH WIND       PRES   REMARKS
VICTORIA       FAIR      76  49  38 NW12      29.92F
BEEVILLE       NOT AVBL
ROCKPORT       FAIR      75  52  44 NW10      29.93S
PORT ARANSAS   NOT AVBL
PORT LAVACA    NOT AVBL
CORPUS CHRISTI FAIR      74  53  48 N12       29.94S
KINGSVILLE NAS NOT AVBL
COTULLA        FAIR      76  44  32 SW7       29.96F
LAREDO         NOT AVBL
BROWNSVILLE    FAIR      77  57  50 NW14      29.95S
PORT ISABEL    FAIR      76  54  46 NW12G20   29.94S
HEBBRONVILLE   NOT AVBL
MCALLEN        FAIR      78  52  40 NW13G20   29.97F
WESLACO        NOT AVBL
FALFURRIAS     NOT AVBL
EDINBURG       NOT AVBL
$$




USA.gov is the U.S. government's official web portal to all federal, state and local government web resources and services.